Location: Ellingshausen
(50.5460°N, 10.4723°E)
Time: 22:32:56
(UTC+00:00)

Gblst 52 Del rocket - Pass Details

Date: 18 January 2026
Orbit: 805 x 1364 km, 51.5° (Epoch: 7 February)

Event Time Altitude Azimuth Distance (km) Brightness Sun altitude
Exits shadow 05:04:20 36° 263° (W) 1,258 4.6 -19.5°
Maximum altitude 05:06:13 52° 210° (SSW) 992 4.4 -19.2°
Drops below altitude 10° 05:11:35 10° 135° (SE) 2,418 7.4 -18.3°
Sets 05:14:09 0° 131° (SE) 3,389 8.4 -17.9°
